Weather History for KAWG - January, 2014

Change the Weather History Date:

Sunday, January 5, 2014

  Actual Average Record
Temperature  
Mean Temperature 3 °F -  
Max Temperature 15 °F 31 °F 62 °F (2012)
Min Temperature -9 °F 16 °F -9 °F (2014)
Degree Days  
Heating Degree Days 62    
Moisture  
Dew Point -3 °F    
Average Humidity 68    
Maximum Humidity 79    
Minimum Humidity 54    
Precipitation  
Precipitation 0.00 in - - ()
Sea Level Pressure  
Sea Level Pressure 30.21 in    
Wind  
Wind Speed 19 mph (NNW)    
Max Wind Speed 30 mph    
Max Gust Speed 43 mph    
Visibility 9 miles    
Events      
Averages and records for this station are not official NWS values.
T = Trace of Precipitation, MM = Missing Value Source: NWS Daily Summary

Daily Weather History Graph

Daily Weather History Graph

Search for Another Location

Airport or City:

Trip Planner

Search our weather history database for the weather conditions in past years. The results will help you decide how hot, cold, wet, or windy it might be!

Date:

Astronomy

Jan. 05, 2014 Rise Set
Actual Time 7:32 AM CST 4:51 PM CST
Civil Twilight 7:01 AM CST 5:22 PM CST
Nautical Twilight 6:27 AM CST 5:57 PM CST
Astronomical Twilight 5:53 AM CST 6:30 PM CST
Moon 10:11 AM CST (1/5) 10:23 PM CST (1/5)
Length of Visible Light 10h 21m
Length of Day
9h 19m
Waxing Crescent, 25% of the Moon is Illuminated
Jan 5
Waxing Crescent
Jan 7
First Quarter
Jan 15
Full
Jan 23
Last Quarter
Jan 30
New

Hourly Weather History & Observations

Time (CST) Temp. Windchill Dew Point Humidity Pressure Visibility Wind Dir Wind Speed Gust Speed Precip Events Conditions
12:15 AM 15.8 °F 0.3 °F 10.4 °F 79% 30.08 in 10.0 mi North 16.1 mph - N/A   Overcast
12:35 AM 15.8 °F 1.4 °F 10.4 °F 79% 30.08 in 10.0 mi North 13.8 mph - N/A   Overcast
12:55 AM 15.8 °F 1.4 °F 10.4 °F 79% 30.09 in 10.0 mi NNW 13.8 mph 19.6 mph N/A   Overcast
1:15 AM 15.8 °F 2.1 °F 10.4 °F 79% 30.10 in 10.0 mi NNW 12.7 mph - N/A   Overcast
1:35 AM 15.8 °F 2.1 °F 10.4 °F 79% 30.11 in 10.0 mi NNW 12.7 mph - N/A   Overcast
1:55 AM 15.8 °F 0.9 °F 8.6 °F 73% 30.11 in 10.0 mi North 15.0 mph - N/A   Overcast
2:15 AM 15.8 °F 1.4 °F 8.6 °F 73% 30.11 in 10.0 mi North 13.8 mph - N/A   Overcast
2:35 AM 15.8 °F -0.2 °F 8.6 °F 73% 30.10 in 10.0 mi North 17.3 mph 23.0 mph N/A   Overcast
2:55 AM 15.8 °F 0.3 °F 8.6 °F 73% 30.10 in 10.0 mi North 16.1 mph - N/A   Overcast
3:15 AM 15.8 °F -0.6 °F 8.6 °F 73% 30.09 in 10.0 mi North 18.4 mph 24.2 mph N/A   Overcast
3:35 AM 14.0 °F -3.4 °F 8.6 °F 79% 30.08 in 10.0 mi North 19.6 mph - N/A   Overcast
3:55 AM 14.0 °F -3.4 °F 6.8 °F 73% 30.08 in 10.0 mi North 19.6 mph 25.3 mph N/A   Overcast
4:15 AM 14.0 °F -3.9 °F 6.8 °F 73% 30.09 in 10.0 mi North 20.7 mph 27.6 mph N/A   Overcast
4:35 AM 14.0 °F -3.9 °F 6.8 °F 73% 30.10 in 10.0 mi North 20.7 mph 27.6 mph N/A   Overcast
4:55 AM 12.2 °F -4.3 °F 6.8 °F 79% 30.10 in 10.0 mi North 16.1 mph 24.2 mph N/A   Overcast
5:15 AM 12.2 °F -3.1 °F 6.8 °F 79% 30.12 in 10.0 mi North 13.8 mph - N/A   Overcast
5:35 AM 12.2 °F -3.7 °F 5.0 °F 73% 30.12 in 10.0 mi North 15.0 mph - N/A   Overcast
5:55 AM 12.2 °F -4.3 °F 5.0 °F 73% 30.13 in - North 16.1 mph - N/A   Overcast
6:15 AM 12.2 °F -5.8 °F 5.0 °F 73% 30.11 in 10.0 mi North 19.6 mph - N/A   Overcast
6:35 AM 10.4 °F -8.2 °F 5.0 °F 79% 30.11 in 9.0 mi North 19.6 mph 26.5 mph N/A   Overcast
6:55 AM 10.4 °F -6.6 °F 3.2 °F 73% 30.14 in 10.0 mi North 16.1 mph 25.3 mph N/A   Overcast
7:15 AM 10.4 °F -9.1 °F 3.2 °F 73% 30.14 in 10.0 mi NNW 21.9 mph 29.9 mph N/A   Overcast
7:35 AM 10.4 °F -7.2 °F 3.2 °F 73% 30.16 in 10.0 mi NNW 17.3 mph 26.5 mph N/A   Overcast
7:55 AM 8.6 °F -10.5 °F 1.4 °F 73% 30.15 in 10.0 mi NNW 19.6 mph - N/A   Overcast
8:15 AM 8.6 °F -11.9 °F 1.4 °F 73% 30.16 in 10.0 mi NNW 23.0 mph - N/A   Mostly Cloudy
8:35 AM 8.6 °F -10.5 °F 1.4 °F 73% 30.18 in 10.0 mi NNW 19.6 mph - N/A   Partly Cloudy
8:55 AM 8.6 °F -11.9 °F 1.4 °F 73% 30.18 in 10.0 mi NNW 23.0 mph - N/A   Scattered Clouds
9:15 AM 6.8 °F -12.9 °F 1.4 °F 79% 30.19 in 10.0 mi NNW 19.6 mph 28.8 mph N/A   Scattered Clouds
9:35 AM 6.8 °F -13.4 °F -0.4 °F 72% 30.18 in 8.0 mi NNW 20.7 mph 28.8 mph N/A   Partly Cloudy
9:55 AM 6.8 °F -14.3 °F -0.4 °F 72% 30.19 in 9.0 mi NNW 23.0 mph 31.1 mph N/A   Scattered Clouds
10:15 AM 6.8 °F -14.7 °F -0.4 °F 72% 30.18 in 6.0 mi North 24.2 mph 31.1 mph N/A   Haze
10:35 AM 6.8 °F -11.8 °F -0.4 °F 72% 30.19 in 9.0 mi NNW 17.3 mph 28.8 mph N/A   Scattered Clouds
10:55 AM 6.8 °F -14.3 °F -2.2 °F 67% 30.19 in 9.0 mi North 23.0 mph 28.8 mph N/A   Partly Cloudy
11:15 AM 6.8 °F -13.8 °F -2.2 °F 67% 30.19 in 9.0 mi North 21.9 mph 27.6 mph N/A   Scattered Clouds
11:35 AM 5.0 °F -15.7 °F -4.0 °F 66% 30.18 in 7.0 mi NNW 20.7 mph 28.8 mph N/A   Scattered Clouds
11:55 AM 5.0 °F -15.7 °F -4.0 °F 66% 30.17 in 7.0 mi NNW 20.7 mph 29.9 mph N/A   Partly Cloudy
12:15 PM 5.0 °F -17.1 °F -4.0 °F 66% 30.17 in 5.0 mi North 24.2 mph 32.2 mph N/A   Haze
12:35 PM 5.0 °F -17.5 °F -4.0 °F 66% 30.18 in 9.0 mi NNW 25.3 mph 31.1 mph N/A   Clear
12:55 PM 5.0 °F -16.2 °F -4.0 °F 66% 30.18 in 8.0 mi NNW 21.9 mph 28.8 mph N/A   Clear
1:15 PM 5.0 °F -15.7 °F -5.8 °F 61% 30.18 in 9.0 mi NNW 20.7 mph 31.1 mph N/A   Clear
1:35 PM 5.0 °F -16.2 °F -5.8 °F 61% 30.19 in 10.0 mi NNW 21.9 mph 27.6 mph N/A   Clear
1:55 PM 3.2 °F -20.3 °F -5.8 °F 66% 30.19 in 5.0 mi NNW 26.5 mph 33.4 mph N/A   Haze
2:15 PM 5.0 °F -15.2 °F -5.8 °F 61% 30.20 in 10.0 mi NNW 19.6 mph 28.8 mph N/A   Clear
2:35 PM 3.2 °F -19.9 °F -7.6 °F 61% 30.21 in 8.0 mi NNW 25.3 mph 33.4 mph N/A   Clear
2:55 PM 3.2 °F -19.5 °F -7.6 °F 61% 30.22 in 5.0 mi NNW 24.2 mph 35.7 mph N/A   Haze
3:15 PM 5.0 °F -18.7 °F -7.6 °F 56% 30.24 in 8.0 mi NNW 28.8 mph 34.5 mph N/A   Clear
3:35 PM 3.2 °F -19.0 °F -7.6 °F 61% 30.25 in 10.0 mi NNW 23.0 mph 31.1 mph N/A   Clear
3:55 PM 3.2 °F -19.5 °F -7.6 °F 61% 30.26 in 9.0 mi NW 24.2 mph 32.2 mph N/A   Partly Cloudy
4:15 PM 3.2 °F -19.0 °F -7.6 °F 61% 30.27 in 10.0 mi NNW 23.0 mph 29.9 mph N/A   Mostly Cloudy
4:35 PM 3.2 °F -19.5 °F -7.6 °F 61% 30.27 in 8.0 mi NNW 24.2 mph 32.2 mph N/A   Overcast
4:55 PM 3.2 °F -19.0 °F -7.6 °F 61% 30.28 in 10.0 mi NNW 23.0 mph 29.9 mph N/A   Overcast
5:15 PM 3.2 °F -18.1 °F -7.6 °F 61% 30.28 in 10.0 mi NNW 20.7 mph 28.8 mph N/A   Overcast
5:35 PM 1.4 °F -20.5 °F -7.6 °F 66% 30.29 in 10.0 mi NW 20.7 mph 27.6 mph N/A   Mostly Cloudy
5:55 PM 1.4 °F -21.0 °F -7.6 °F 66% 30.30 in 10.0 mi NW 21.9 mph 28.8 mph N/A   Partly Cloudy
6:15 PM 1.4 °F -20.5 °F -7.6 °F 66% 30.30 in 10.0 mi NW 20.7 mph 28.8 mph N/A   Scattered Clouds
6:35 PM 1.4 °F -20.5 °F -7.6 °F 66% 30.31 in 10.0 mi NW 20.7 mph 31.1 mph N/A   Scattered Clouds
6:55 PM -0.4 °F -21.7 °F -7.6 °F 72% 30.31 in 10.0 mi NW 18.4 mph 28.8 mph N/A   Scattered Clouds
7:15 PM -0.4 °F -23.8 °F -7.6 °F 72% 30.32 in 10.0 mi NW 23.0 mph 31.1 mph N/A   Scattered Clouds
7:35 PM -0.4 °F -21.7 °F -5.8 °F 78% 30.32 in 4.0 mi NW 18.4 mph 28.8 mph N/A   Haze
7:55 PM -0.4 °F -23.3 °F -9.4 °F 66% 30.32 in 10.0 mi NW 21.9 mph 32.2 mph N/A   Overcast
8:15 PM -0.4 °F -24.7 °F -7.6 °F 72% 30.32 in 9.0 mi NW 25.3 mph 32.2 mph N/A   Mostly Cloudy
8:35 PM -0.4 °F -23.3 °F -7.6 °F 72% 30.32 in 4.0 mi NW 21.9 mph 32.2 mph N/A   Haze
8:55 PM -2.2 °F -28.4 °F -14.8 °F 55% 30.32 in 8.0 mi NW 28.8 mph 35.7 mph N/A   Overcast
9:15 PM -4.0 °F -29.1 °F -16.6 °F 55% 30.33 in 10.0 mi NW 24.2 mph 34.5 mph N/A   Mostly Cloudy
9:35 PM -4.0 °F -29.1 °F -14.8 °F 60% 30.33 in 6.0 mi NW 24.2 mph 31.1 mph N/A   Haze
9:55 PM -5.8 °F -32.4 °F -13.0 °F 71% 30.34 in 8.0 mi NW 26.5 mph 36.8 mph N/A   Mostly Cloudy
10:15 PM -5.8 °F -31.5 °F -16.6 °F 60% 30.34 in 10.0 mi NW 24.2 mph 32.2 mph N/A   Mostly Cloudy
10:35 PM -7.6 °F -35.7 °F -18.4 °F 59% 30.35 in 4.0 mi NW 28.8 mph 42.6 mph N/A   Haze
10:55 PM -7.6 °F -34.4 °F -20.2 °F 54% 30.34 in 4.0 mi NW 25.3 mph 42.6 mph N/A   Haze
11:15 PM -7.6 °F -29.1 °F -20.2 °F 54% 30.35 in 10.0 mi NW 15.0 mph 31.1 mph N/A   Mostly Cloudy
11:35 PM -9.4 °F -35.8 °F -20.2 °F 59% 30.35 in 10.0 mi NW 23.0 mph 29.9 mph N/A   Overcast
11:55 PM -9.4 °F -38.6 °F -22.0 °F 54% 30.35 in 8.0 mi NW 29.9 mph 35.7 mph N/A   Mostly Cloudy